Aérodrome de la Montagne Noire

LFMG · Upper Garonne, Occitanie, França

História da METAR LFMG · Aérodrome de la Montagne Noire

Abaixo você vê METARs dos últimos dias. Selecione um ano para navegar pelos METARs mais antigos, a partir do ano 2007.

9 de dezembro de 2022

Hora Código Clima Temp. Visibilidade Tecto Vento METAR/SPECI
03:00
I
7 °C 5 km 700 ft 050° 050° 3 kt METAR LFCK 090200Z AUTO 05003KT 5000 -RA BR OVC007/// ///CB 07/06 Q0999
02:30
I
7 °C 6 km 600 ft 290° 290° 5 kt METAR LFCK 090130Z AUTO 29005KT 6000 -RA OVC006/// ///TCU 07/06 Q0999
02:00
I
6 °C 7 km 700 ft 340° 340° 2 kt METAR LFCK 090100Z AUTO 34002KT 7000 BKN007 BKN021 OVC100 06/06 Q0999
01:30
M
7 °C 7 km 2.100 ft 290° 290° 5 kt METAR LFCK 090030Z AUTO 29005KT 7000 SCT009 OVC021 07/06 Q1000
01:00
M
7 °C 7 km 2.000 ft 290° 290° 4 kt METAR LFCK 090000Z AUTO 29004KT 7000 OVC020 07/06 Q1000
00:30
M
7 °C 7 km 2.200 ft 290° 290° 3 kt METAR LFCK 082330Z AUTO 29003KT 270V330 7000 OVC022 07/06 Q1000
00:00
M
7 °C 8 km 2.200 ft 280° 280° 6 kt METAR LFCK 082300Z AUTO 28006KT 8000 OVC022 07/06 Q1001

8 de dezembro de 2022

Hora Código Clima Temp. Visibilidade Tecto Vento METAR/SPECI
23:30
M
9 °C 10 km+ 2.200 ft 110° 110° 2 kt METAR LFCK 082230Z AUTO 11002KT 9999 OVC022 09/07 Q1001
23:00
M
9 °C 10 km+ 2.300 ft 130° 130° 5 kt METAR LFCK 082200Z AUTO 13005KT 110V170 9999 OVC023 09/08 Q1001 TEMPO 3000 -RA BKN004 BKN060
22:30
M
9 °C 10 km+ 2.500 ft 150° 150° 5 kt METAR LFCK 082130Z AUTO 15005KT 120V180 9999 BKN025 BKN060 BKN110 09/07 Q1001 TEMPO 3000 -RA BKN004 BKN060
22:00
M
9 °C 10 km+ 2.400 ft 120° 120° 7 kt METAR LFCK 082100Z AUTO 12007KT 9999 FEW015 BKN024 OVC100 09/07 Q1001 NOSIG
21:30
M
9 °C 10 km+ 2.600 ft 120° 120° 9 kt METAR LFCK 082030Z AUTO 12009KT 9999 BKN026 BKN100 OVC130 09/07 Q1001 NOSIG
21:00
M
9 °C 10 km+ 2.300 ft 120° 120° 11 kt METAR LFCK 082000Z AUTO 12011KT 9999 BKN023 BKN078 OVC100 09/07 Q1001 NOSIG
20:30
M
10 °C 10 km+ 2.300 ft 120° 120° 10 kt METAR LFCK 081930Z AUTO 12010KT 9999 BKN023 OVC070 10/08 Q1002 NOSIG
20:00
V
10 °C 10 km+ 7.000 ft 110° 110° 12 kt METAR LFCK 081900Z AUTO 11012KT 9999 FEW023/// BKN070/// OVC100/// ///TCU 10/08 Q1003 TEMPO 4000 -RA BECMG SCT020 BKN090
19:30
V
10 °C 10 km+ 10.000 ft 110° 110° 13 kt METAR LFCK 081830Z AUTO 11013KT 9999 FEW024 OVC100 10/07 Q1003 TEMPO 4000 -RA
19:00
V
9 °C 10 km+ 11.000 ft 110° 110° 10 kt METAR LFCK 081800Z AUTO 11010KT 9999 SCT023 BKN110 OVC130 09/07 Q1002 TEMPO 4000 -RA
18:30
V
9 °C 10 km+ 9.000 ft 100° 100° 13 kt METAR LFCK 081730Z AUTO 10013KT 9999 -RADZ FEW024 BKN090 OVC120 09/07 Q1002 BECMG 11015G25KT
18:00
V
9 °C 10 km+ - 110° 110° 15 kt METAR LFCK 081700Z AUTO 11015KT 9999 -RADZ ///TCU 09/07 Q1003 BECMG 11015G25KT SCT020 BKN120
17:30
V
9 °C 10 km+ 7.200 ft 110° 110° 13 kt METAR LFCK 081630Z AUTO 11013KT 9999 FEW020/// BKN072/// BKN084/// ///TCU 09/07 Q1003 BECMG 11015G25KT SCT020 BKN120
17:00
V
9 °C 10 km+ 12.000 ft 110° 110° 13 kt METAR LFCK 081600Z AUTO 11013KT 9999 SCT020 OVC120 09/06 Q1003 BECMG 11015G25KT
16:30
V
9 °C 10 km+ 11.000 ft 120° 120° 16 kt METAR LFCK 081530Z AUTO 12016KT 9999 SCT021 OVC110 09/06 Q1003 BECMG 11015G25KT
16:00
M
9 °C 10 km+ 2.100 ft 120° 120° 15 kt METAR LFCK 081500Z AUTO 12015KT 9999 BKN021 OVC110 09/06 Q1004 BECMG 11015G25KT
15:30
M
9 °C 10 km+ 2.200 ft 120° 120° 15 kt METAR LFCK 081430Z AUTO 12015KT 9999 BKN022 BKN130 BKN150 09/06 Q1004 BECMG 12015G25KT
15:00
V
10 °C 10 km+ - 110° 110° 13 kt METAR LFCK 081400Z AUTO 11013KT 9999 FEW022 SCT130 10/06 Q1004 BECMG 12015G25KT
14:30
V
10 °C 10 km+ 13.000 ft 110° 110° 8 - 19 kt METAR LFCK 081330Z AUTO 11008G19KT 9999 FEW021 BKN130 BKN150 10/06 Q1004 NOSIG
14:00
V
10 °C 10 km+ 19.000 ft 110° 110° 13 kt METAR LFCK 081300Z AUTO 11013KT 9999 FEW021 OVC190 10/06 Q1005 BECMG 12015G25KT
13:30
V
10 °C 10 km+ 20.000 ft 120° 120° 14 kt METAR LFCK 081230Z AUTO 12014KT 9999 FEW020 OVC200 10/06 Q1005 BECMG 12015G25KT
13:00
V
10 °C 10 km+ 20.000 ft 120° 120° 14 kt METAR LFCK 081200Z AUTO 12014KT 9999 FEW020 OVC200 10/07 Q1006 BECMG 12015G25KT
12:30
V
11 °C 10 km+ 20.000 ft 120° 120° 11 kt METAR LFCK 081130Z AUTO 12011KT 9999 FEW020 OVC200 11/06 Q1006 BECMG 11018G28KT
12:00
V
10 °C 10 km+ - 120° 120° 15 kt METAR LFCK 081100Z AUTO 12015KT CAVOK 10/06 Q1006 BECMG 11018G28KT
11:30
V
10 °C 10 km+ - 110° 110° 15 kt METAR LFCK 081030Z AUTO 11015KT CAVOK 10/06 Q1007 BECMG 11018G28KT
11:00
V
10 °C 10 km+ - 110° 110° 16 kt METAR LFCK 081000Z AUTO 11016KT CAVOK 10/06 Q1007 BECMG 11018G28KT
10:30
V
10 °C 10 km+ - 110° 110° 14 kt METAR LFCK 080930Z AUTO 11014KT CAVOK 10/06 Q1007 BECMG 11018G28KT
10:00
V
9 °C 10 km+ - 110° 110° 14 kt METAR LFCK 080900Z AUTO 11014KT CAVOK 09/06 Q1007 BECMG 11018G28KT
09:30
V
9 °C 10 km+ - 110° 110° 15 kt METAR LFCK 080830Z AUTO 11015KT CAVOK 09/06 Q1008 NOSIG
09:00
V
9 °C 10 km+ - 110° 110° 17 kt METAR LFCK 080800Z AUTO 11017KT CAVOK 09/06 Q1007 NOSIG
08:30
V
8 °C 10 km+ - 110° 110° 16 kt METAR LFCK 080730Z AUTO 11016KT CAVOK 08/06 Q1007 NOSIG
08:00
V
9 °C 10 km+ - 120° 120° 11 kt METAR LFCK 080700Z AUTO 12011KT CAVOK 09/06 Q1008 NOSIG
07:30
V
4 °C 10 km+ - Var Var 3 kt METAR LFCK 080630Z AUTO VRB03KT CAVOK 04/03 Q1008 NOSIG
07:00
V
5 °C 10 km+ - Var Var 2 kt METAR LFCK 080600Z AUTO VRB02KT CAVOK 05/02 Q1008 NOSIG
06:30
V
6 °C 10 km+ - Var Var 3 kt METAR LFCK 080530Z AUTO VRB03KT CAVOK 06/03 Q1009
06:00
V
5 °C 10 km+ - Var Var 2 kt METAR LFCK 080500Z AUTO VRB02KT CAVOK 05/02 Q1009
05:30
V
5 °C 10 km+ - Var 000° 0 kt METAR LFCK 080430Z AUTO 00000KT CAVOK 05/02 Q1009
05:00
V
4 °C 10 km+ - Var Var 2 kt METAR LFCK 080400Z AUTO VRB02KT CAVOK 04/02 Q1010
04:30
V
4 °C 10 km+ - Var Var 2 kt METAR LFCK 080330Z AUTO VRB02KT CAVOK 04/01 Q1010
04:00
V
3 °C 10 km+ - 060° 060° 3 kt METAR LFCK 080300Z AUTO 06003KT CAVOK 03/00 Q1010
03:30
V
2 °C 10 km+ - 150° 150° 4 kt METAR LFCK 080230Z AUTO 15004KT 110V170 CAVOK 02/M00 Q1011
03:00
V
1 °C 10 km+ - 070° 070° 3 kt METAR LFCK 080200Z AUTO 07003KT CAVOK 01/M01 Q1011
02:30
V
2 °C 10 km+ - Var Var 3 kt METAR LFCK 080130Z AUTO VRB03KT CAVOK 02/M02 Q1011
02:00
V
2 °C 10 km+ - Var Var 3 kt METAR LFCK 080100Z AUTO VRB03KT CAVOK 02/M02 Q1011
01:30
V
2 °C 10 km+ - Var Var 2 kt METAR LFCK 080030Z AUTO VRB02KT CAVOK 02/M02 Q1011
01:00
V
2 °C 10 km+ - Var 000° 0 kt METAR LFCK 080000Z AUTO 00000KT CAVOK 02/M02 Q1012
00:30
V
2 °C 10 km+ - 090° 090° 3 kt METAR LFCK 072330Z AUTO 09003KT CAVOK 02/M01 Q1012
00:00
V
2 °C 10 km+ - Var Var 2 kt METAR LFCK 072300Z AUTO VRB02KT CAVOK 02/M01 Q1012

7 de dezembro de 2022

Hora Código Clima Temp. Visibilidade Tecto Vento METAR/SPECI
23:30
V
2 °C 10 km+ - 090° 090° 3 kt METAR LFCK 072230Z AUTO 09003KT CAVOK 02/M01 Q1012
23:00
V
3 °C 10 km+ - Var Var 2 kt METAR LFCK 072200Z AUTO VRB02KT CAVOK 03/M01 Q1013 NOSIG
22:30
V
2 °C 10 km+ - Var Var 2 kt METAR LFCK 072130Z AUTO VRB02KT CAVOK 02/M01 Q1013 NOSIG
22:00
V
3 °C 10 km+ - 130° 130° 3 kt METAR LFCK 072100Z AUTO 13003KT 090V160 CAVOK 03/M00 Q1013 NOSIG
21:30
V
3 °C 10 km+ - 120° 120° 3 kt METAR LFCK 072030Z AUTO 12003KT CAVOK 03/M01 Q1013 NOSIG
21:00
V
4 °C 10 km+ - Var Var 3 kt METAR LFCK 072000Z AUTO VRB03KT CAVOK 04/M00 Q1013 NOSIG
20:30
V
4 °C 10 km+ - 090° 090° 3 kt METAR LFCK 071930Z AUTO 09003KT CAVOK 04/M01 Q1013 NOSIG
20:00
V
5 °C 10 km+ - Var Var 3 kt METAR LFCK 071900Z AUTO VRB03KT CAVOK 05/M00 Q1013 NOSIG
19:30
V
5 °C 10 km+ - 140° 140° 5 kt METAR LFCK 071830Z AUTO 14005KT CAVOK 05/M00 Q1013 NOSIG
19:00
V
4 °C 10 km+ - 120° 120° 5 kt METAR LFCK 071800Z AUTO 12005KT 070V140 CAVOK 04/M00 Q1013 NOSIG
18:30
V
6 °C 10 km+ - 100° 100° 3 kt METAR LFCK 071730Z AUTO 10003KT CAVOK 06/00 Q1013 NOSIG
18:00
V
6 °C 10 km+ - 160° 160° 5 kt METAR LFCK 071700Z AUTO 16005KT CAVOK 06/01 Q1013 NOSIG
17:30
V
9 °C 10 km+ - 170° 170° 4 kt METAR LFCK 071630Z AUTO 17004KT CAVOK 09/01 Q1013 NOSIG
17:00
V
9 °C 10 km+ - 220° 220° 3 kt METAR LFCK 071600Z AUTO 22003KT CAVOK 09/01 Q1013 NOSIG
16:30
V
12 °C 10 km+ - 250° 250° 3 kt METAR LFCK 071530Z AUTO 25003KT CAVOK 12/01 Q1013 NOSIG
16:00
V
13 °C 10 km+ - 270° 270° 4 kt METAR LFCK 071500Z AUTO 27004KT CAVOK 13/00 Q1013 NOSIG
15:30
V
13 °C 10 km+ - 280° 280° 4 kt METAR LFCK 071430Z AUTO 28004KT 230V310 CAVOK 13/M01 Q1014 NOSIG
15:00
V
13 °C 10 km+ - 270° 270° 3 kt METAR LFCK 071400Z AUTO 27003KT CAVOK 13/00 Q1014 NOSIG
14:30
V
13 °C 10 km+ - 290° 290° 3 kt METAR LFCK 071330Z AUTO 29003KT 250V330 CAVOK 13/M01 Q1014 NOSIG
14:00
V
13 °C 10 km+ - Var Var 2 kt METAR LFCK 071300Z AUTO VRB02KT CAVOK 13/00 Q1014 NOSIG
13:30
V
12 °C 10 km+ - Var Var 2 kt METAR LFCK 071230Z AUTO VRB02KT CAVOK 12/02 Q1015 NOSIG
13:00
V
11 °C 10 km+ - Var Var 2 kt METAR LFCK 071200Z AUTO VRB02KT CAVOK 11/01 Q1015 NOSIG
12:30
V
11 °C 10 km+ - 280° 280° 3 kt METAR LFCK 071130Z AUTO 28003KT 250V320 CAVOK 11/03 Q1015 NOSIG
12:00
V
10 °C 10 km+ - Var Var 3 kt METAR LFCK 071100Z AUTO VRB03KT CAVOK 10/02 Q1016 NOSIG
11:30
V
10 °C 10 km+ - Var 000° 0 kt METAR LFCK 071030Z AUTO 00000KT CAVOK 10/03 Q1016 NOSIG
11:00
V
9 °C 10 km+ - Var 000° 0 kt METAR LFCK 071000Z AUTO 00000KT CAVOK 09/04 Q1016 NOSIG
10:30
V
8 °C 10 km+ - Var 000° 0 kt METAR LFCK 070930Z AUTO 00000KT CAVOK 08/04 Q1016 NOSIG
10:00
V
7 °C 10 km+ - 120° 120° 3 kt METAR LFCK 070900Z AUTO 12003KT CAVOK 07/04 Q1016 NOSIG
09:30
V
6 °C 10 km+ - 130° 130° 4 kt METAR LFCK 070830Z AUTO 13004KT CAVOK 06/04 Q1016 NOSIG
09:00
V
5 °C 10 km+ - Var Var 2 kt METAR LFCK 070800Z AUTO VRB02KT CAVOK 05/04 Q1016 NOSIG
08:30
V
4 °C 10 km+ - 120° 120° 2 kt METAR LFCK 070730Z AUTO 12002KT CAVOK 04/03 Q1016 NOSIG
08:00
V
5 °C 10 km+ - 140° 140° 2 kt METAR LFCK 070700Z AUTO 14002KT CAVOK 05/03 Q1016 TEMPO 4000 BR
07:30
V
5 °C 10 km+ 6.200 ft 140° 140° 2 kt METAR LFCK 070630Z AUTO 14002KT 9999 FEW049 OVC062 05/03 Q1016 TEMPO 4000 BR
07:00
V
5 °C 10 km+ 4.700 ft Var 000° 0 kt METAR LFCK 070600Z AUTO 00000KT 9999 BKN047 OVC062 05/03 Q1016 TEMPO 4000 BR
06:30
V
5 °C 10 km+ 4.900 ft 330° 330° 1 kt METAR LFCK 070530Z AUTO 33001KT 9999 BKN049 OVC062 05/03 Q1016
06:00
V
5 °C 10 km+ 4.900 ft Var 000° 0 kt METAR LFCK 070500Z AUTO 00000KT 9999 OVC049 05/03 Q1016
05:30
V
4 °C 10 km+ 4.900 ft 200° 200° 1 kt METAR LFCK 070430Z AUTO 20001KT 9999 BKN049 OVC066 04/03 Q1016
05:00
V
5 °C 10 km+ - 290° 290° 2 kt METAR LFCK 070400Z AUTO 29002KT CAVOK 05/03 Q1016
04:30
V
4 °C 10 km+ - Var Var 1 kt METAR LFCK 070330Z AUTO VRB01KT CAVOK 04/03 Q1016
04:00
V
5 °C 10 km+ - Var 000° 0 kt METAR LFCK 070300Z AUTO 00000KT CAVOK 05/03 Q1016
03:30
V
5 °C 10 km+ - 040° 040° 2 kt METAR LFCK 070230Z AUTO 04002KT CAVOK 05/03 Q1016
03:00
V
4 °C 10 km+ - 080° 080° 3 kt METAR LFCK 070200Z AUTO 08003KT CAVOK 04/02 Q1016
02:30
V
4 °C 10 km+ - 140° 140° 5 kt METAR LFCK 070130Z AUTO 14005KT CAVOK 04/03 Q1016
02:00
V
4 °C 10 km+ - 120° 120° 4 kt METAR LFCK 070100Z AUTO 12004KT CAVOK 04/02 Q1017
01:30
V
5 °C 10 km+ - 150° 150° 5 kt METAR LFCK 070030Z AUTO 15005KT CAVOK 05/02 Q1017
01:00
V
4 °C 10 km+ - 100° 100° 3 kt METAR LFCK 070000Z AUTO 10003KT 070V140 CAVOK 04/02 Q1017
00:30
V
3 °C 10 km+ - 140° 140° 4 kt METAR LFCK 062330Z AUTO 14004KT CAVOK 03/01 Q1017
00:00
V
3 °C 10 km+ - 070° 070° 4 kt METAR LFCK 062300Z AUTO 07004KT CAVOK 03/02 Q1017

6 de dezembro de 2022

Hora Código Clima Temp. Visibilidade Tecto Vento METAR/SPECI
23:30
V
2 °C 10 km+ - 150° 150° 5 kt METAR LFCK 062230Z AUTO 15005KT CAVOK 02/01 Q1017
23:00
V
4 °C 10 km+ - 080° 080° 3 kt METAR LFCK 062200Z AUTO 08003KT CAVOK 04/02 Q1017 NOSIG
22:30
V
5 °C 10 km+ - Var 000° 0 kt METAR LFCK 062130Z AUTO 00000KT CAVOK 05/03 Q1017 NOSIG
22:00
V
5 °C 10 km+ - Var 000° 0 kt METAR LFCK 062100Z AUTO 00000KT CAVOK 05/03 Q1017 NOSIG
21:30
V
5 °C 10 km+ - Var 000° 0 kt METAR LFCK 062030Z AUTO 00000KT CAVOK 05/03 Q1017 NOSIG
21:00
V
6 °C 10 km+ - Var 000° 0 kt METAR LFCK 062000Z AUTO 00000KT CAVOK 06/03 Q1017 NOSIG
20:30
V
5 °C 10 km+ - 260° 260° 1 kt METAR LFCK 061930Z AUTO 26001KT CAVOK 05/02 Q1017 NOSIG
20:00
V
7 °C 10 km+ - Var Var 2 kt METAR LFCK 061900Z AUTO VRB02KT CAVOK 07/03 Q1017 NOSIG
19:30
V
8 °C 10 km+ - Var 000° 0 kt METAR LFCK 061830Z AUTO 00000KT CAVOK 08/03 Q1017 NOSIG
19:00
V
7 °C 10 km+ - Var Var 2 kt METAR LFCK 061800Z AUTO VRB02KT CAVOK 07/03 Q1016 NOSIG
18:30
V
8 °C 10 km+ - 160° 160° 2 kt METAR LFCK 061730Z AUTO 16002KT CAVOK 08/04 Q1016 NOSIG
18:00
V
9 °C 10 km+ - 260° 260° 2 kt METAR LFCK 061700Z AUTO 26002KT CAVOK 09/03 Q1016 NOSIG
17:30
V
9 °C 10 km+ - 230° 230° 2 kt METAR LFCK 061630Z AUTO 23002KT 9999 ///TCU 09/02 Q1016 BECMG NSC
17:00
V
10 °C 10 km+ - 210° 210° 2 kt METAR LFCK 061600Z AUTO 21002KT CAVOK 10/03 Q1016 NOSIG
16:30
V
10 °C 10 km+ - 240° 240° 2 kt METAR LFCK 061530Z AUTO 24002KT CAVOK 10/03 Q1016 NOSIG
16:00
V
11 °C 10 km+ - 310° 310° 3 kt METAR LFCK 061500Z AUTO 31003KT CAVOK 11/02 Q1016 NOSIG
15:30
V
11 °C 10 km+ - Var 000° 0 kt METAR LFCK 061430Z AUTO 00000KT CAVOK 11/02 Q1015 NOSIG
15:00
V
11 °C 10 km+ - Var 000° 0 kt METAR LFCK 061400Z AUTO 00000KT CAVOK 11/01 Q1015 NOSIG
14:30
V
11 °C 10 km+ - 270° 270° 3 kt METAR LFCK 061330Z AUTO 27003KT CAVOK 11/02 Q1016 NOSIG
14:00
V
11 °C 10 km+ - Var Var 3 kt METAR LFCK 061300Z AUTO VRB03KT CAVOK 11/02 Q1016 NOSIG
13:30
V
11 °C 10 km+ - 270° 270° 3 kt METAR LFCK 061230Z AUTO 27003KT CAVOK 11/01 Q1016 NOSIG
13:00
V
10 °C 10 km+ - 270° 270° 4 kt METAR LFCK 061200Z AUTO 27004KT CAVOK 10/01 Q1016 NOSIG
12:30
V
9 °C 10 km+ - 300° 300° 3 kt METAR LFCK 061130Z AUTO 30003KT 270V330 CAVOK 09/01 Q1017 NOSIG
12:00
V
8 °C 10 km+ - 290° 290° 4 kt METAR LFCK 061100Z AUTO 29004KT CAVOK 08/02 Q1017 NOSIG
11:30
V
7 °C 10 km+ - 290° 290° 3 kt METAR LFCK 061030Z AUTO 29003KT CAVOK 07/02 Q1017 NOSIG
11:00
V
7 °C 10 km+ - Var Var 2 kt METAR LFCK 061000Z AUTO VRB02KT CAVOK 07/03 Q1017 NOSIG

Nós e terceiros acompanhamos seu comportamento na internet em nosso site com cookies. Se você continuar, nós assumimos que você concorda com nosso política de cookies.